Vorticity
6 7 7 8 9 10 10 9 9 10 10 10 10 11 11 11 11 10 9 9 10 10 9 10 11 10 10 9 10 10 10 11 10 10 10 9 9 9 9 9 10 11 12 12 13 12 11 10 9 8 7 7 7 7 8 8 9 9 9 10 10 10 10 11 11 11 11 10 9 9 8 8 7 6 6 7 7 8 8 9 9 9 9 9 9 9
6 6 7 8 9 10 10 10 10 11 11 11 11 11 12 12 12 11 12 12 11 10 10 10 10 10 9 9 9 9 9 10 9 9 9 9 10 10 11 12 12 12 11 10 9 7 7 6 7 7 8 9 10 10 11 11 11 11 11 11 11 11 11 11 11 11 10 10 9 8 7 6 6 6 7 8 9 10 10 10 9 9 9 9 8 7
6 6 7 7 8 8 9 10 10 10 10 10 10 10 11 10 10 10 11 11 10 9 9 9 9 8 8 8 8 9 9 9 10 10 11 11 12 11 11 10 8 7 6 5 6 7 8 9 10 11 12 13 13 12 12 12 12 12 12 12 12 11 11 10 9 8 8 6 6 5 5 6 7 8 9 10 11 11 12 11 10 9 8 7 7 7
8 8 8 8 8 8 9 9 9 9 9 10 10 10 9 9 8 8 8 8 8 8 8 9 10 8 8 9 10 11 11 12 12 12 11 10 8 7 5 4 4 5 6 7 9 11 12 13 14 15 14 14 13 12 12 12 12 12 12 12 12 11 10 9 8 7 5 4 4 5 6 5 5 7 9 10 9 8 7 5 4 5 5 5 5 4
10 10 9 9 9 9 9 9 8 9 9 9 9 8 8 8 7 8 8 8 8 8 9 10 10 9 10 11 11 11 11 9 8 6 5 4 3 3 4 6 8 9 10 12 12 13 14 14 14 14 13 12 11 11 11 11 10 9 9 10 10 10 9 8 6 5 4 5 7 6 5 5 6 7 7 5 4 3 4 3 3 4 5 5 5 6
10 10 10 10 9 9 9 8 9 9 9 9 9 9 8 8 9 9 9 10 10 10 10 10 9 9 9 9 8 7 6 5 4 3 2 2 4 6 9 11 12 13 14 14 14 13 13 12 12 11 10 10 10 9 9 8 7 7 7 8 8 9 8 6 5 5 6 6 5 3 4 6 7 7 6 6 5 6 6 7 8 7 7 6 7 7
8 9 9 8 8 8 8 9 9 9 9 9 9 9 9 10 10 9 9 9 9 10 9 6 6 7 7 5 3 3 3 3 2 3 4 6 9 11 11 12 12 12 12 12 11 11 10 10 9 8 8 8 7 7 7 7 7 8 9 9 10 10 9 9 8 7 6 5 4 5 7 7 6 5 6 8 8 7 7 6 5 4 3 3 4 5
7 7 7 7 8 8 8 8 8 8 9 9 8 9 9 9 8 8 8 7 7 6 5 5 4 5 5 3 3 2 2 3 4 7 10 11 12 13 12 12 12 11 11 11 10 10 9 9 9 9 9 9 9 9 9 9 10 10 10 10 10 9 9 7 6 5 5 5 6 7 7 7 7 7 6 6 6 6 5 4 3 2 3 5 6 6
6 6 7 7 7 7 7 7 7 8 8 8 8 8 8 8 7 8 7 6 6 5 4 5 5 5 5 4 4 4 5 7 10 12 13 14 14 14 14 14 14 14 14 14 13 13 12 12 11 10 10 9 9 9 9 9 9 9 9 9 9 8 8 7 7 7 8 9 8 7 6 5 5 6 5 5 4 3 3 3 4 6 7 7 7 6
7 7 6 6 6 6 6 6 6 6 6 6 6 6 6 6 5 5 4 5 5 3 4 7 7 8 9 7 7 9 11 13 14 14 14 15 15 14 15 15 15 14 14 13 12 10 9 8 8 8 8 8 8 9 9 9 8 8 9 10 11 12 11 11 10 9 7 6 4 3 3 2 3 3 3 4 4 5 6 6 7 7 7 7 7 6
5 4 5 5 5 5 6 6 6 6 6 6 6 6 5 5 5 4 4 6 6 7 9 11 11 12 11 9 11 13 14 15 15 15 15 14 13 13 13 12 11 10 8 7 6 6 7 8 9 10 11 11 12 13 13 13 13 13 13 12 12 10 7 5 3 2 2 2 3 4 5 6 7 8 8 7 7 7 7 7 7 7 6 6 6 6
6 8 11 11 12 13 12 11 10 8 8 9 9 9 8 8 9 9 9 11 11 12 14 13 13 12 10 12 15 15 15 15 14 13 12 11 10 9 8 7 6 5 5 6 7 10 11 12 13 13 13 13 13 13 12 12 10 9 7 4 3 3 2 3 5 6 8 9 10 11 10 10 10 9 9 8 7 6 5 5 5 5 5 5 5 5
19 22 22 22 22 22 21 20 18 17 16 14 14 14 15 16 15 15 15 16 15 15 16 14 13 12 11 15 17 15 14 12 10 9 8 7 6 5 5 5 6 8 9 11 11 12 11 11 10 9 8 8 7 7 6 5 4 3 4 4 5 7 9 10 11 11 10 10 9 8 8 7 6 7 7 6 6 6 6 6 5 5 5 5 5 5
20 18 17 17 17 17 18 18 18 19 18 18 18 17 17 17 17 16 16 15 14 14 13 12 11 11 12 14 14 12 10 8 6 6 5 6 7 8 10 11 11 11 11 10 10 9 9 9 8 7 8 8 9 9 9 9 9 8 9 9 8 8 7 6 5 5 5 5 5 6 6 6 6 6 6 6 6 6 6 6 6 6 5 5 5 4
10 10 11 11 12 12 13 14 14 14 15 15 15 14 14 13 13 14 13 11 12 11 10 11 10 10 10 9 7 7 7 7 8 9 10 12 12 12 12 11 10 8 8 8 9 9 10 10 11 11 11 10 10 9 8 7 7 6 5 4 4 4 4 4 4 5 6 6 6 6 6 6 6 6 5 5 5 5 5 5 5 5 5 5 5 4
10 12 14 13 13 14 14 14 14 13 13 12 12 11 11 11 10 11 10 10 9 7 7 7 7 7 7 6 8 10 11 12 13 14 14 13 11 10 8 7 8 9 10 11 11 11 11 11 9 8 7 6 5 5 4 4 4 4 5 5 6 6 6 7 7 6 6 6 6 6 5 5 5 5 5 6 6 6 6 5 5 5 5 5 5 5
12 13 14 14 12 12 12 10 9 9 9 9 10 9 8 8 7 7 7 7 7 7 7 7 8 10 11 12 13 14 14 14 14 12 10 9 8 8 9 9 10 11 11 10 9 7 6 5 5 4 4 4 5 5 6 6 6 7 7 7 7 7 7 7 7 6 6 6 6 6 6 7 7 7 7 6 6 6 6 5 5 6 6 6 6 6
11 9 10 11 9 8 8 7 6 7 7 8 8 8 7 8 8 8 9 9 9 10 11 12 12 12 13 14 14 13 12 11 10 9 9 10 11 12 12 11 10 8 7 6 5 5 4 5 5 5 6 6 7 7 7 7 7 7 6 6 6 6 6 6 6 6 6 6 6 6 6 6 6 6 6 6 6 6 6 6 6 6 6 6 6 6
9 7 7 8 7 7 8 8 9 10 10 10 10 10 11 12 11 12 13 14 14 14 14 12 11 12 13 13 13 12 11 11 11 12 11 11 10 10 9 8 7 6 6 6 6 7 7 7 7 7 7 7 7 7 6 6 6 6 6 6 6 6 6 6 6 6 6 5 5 5 5 6 6 6 6 6 6 6 6 6 6 6 6 7 8 8
10 10 9 10 9 10 11 11 11 12 12 12 12 13 13 13 13 13 13 15 15 14 15 14 12 12 13 13 12 11 11 11 11 10 9 8 7 6 7 7 8 8 8 8 8 8 8 7 7 6 6 6 6 6 6 6 6 6 6 6 6 6 6 7 7 6 6 6 6 6 6 6 5 5 6 6 7 8 10 11 13 14 15 17 18 19
12 13 12 11 11 13 13 12 12 12 12 13 13 13 14 14 14 14 13 13 13 13 14 16 14 11 11 11 10 9 9 8 8 8 8 8 8 9 9 8 8 8 8 8 7 7 6 6 5 6 6 6 6 6 6 6 7 7 7 7 7 7 7 7 7 6 6 6 5 5 5 6 8 10 13 16 18 20 22 23 24 24 25 25 26 26
12 13 13 12 12 12 12 12 14 15 15 15 14 14 14 14 14 14 13 13 13 13 13 13 13 10 8 8 8 7 8 8 9 9 10 10 10 9 8 8 8 7 6 6 6 6 6 6 7 7 7 7 7 8 8 8 8 8 7 7 6 6 6 5 5 5 5 6 8 11 15 19 22 24 24 25 24 22 21 20 19 18 18 17 17 17
12 12 13 13 14 14 14 15 15 15 14 14 15 15 15 14 14 15 15 13 11 11 9 8 9 9 8 8 8 9 10 9 9 9 9 8 7 6 6 6 5 5 5 5 5 6 7 8 9 8 9 9 8 8 8 7 7 6 5 5 5 5 6 6 8 11 15 20 24 26 27 26 23 21 19 16 15 13 12 12 12 11 11 11 11 11
12 13 13 13 14 15 15 15 14 15 14 14 14 14 15 14 13 12 11 10 8 8 8 7 8 10 10 9 10 10 9 8 8 7 5 5 4 5 6 5 6 6 7 8 8 9 10 9 9 8 7 7 6 5 5 5 4 5 5 6 7 8 11 15 20 24 27 27 24 21 18 15 13 11 10 10 9 9 9 10 10 10 11 11 12 12
15 16 16 14 13 12 11 10 11 13 15 15 13 11 11 9 9 9 9 9 10 10 10 9 10 11 9 9 9 8 7 6 6 5 5 5 5 6 7 8 8 9 9 9 9 9 8 7 6 6 5 5 5 5 5 6 7 8 10 11 15 19 24 27 28 25 21 17 13 10 9 9 8 8 8 8 8 8 9 10 11 11 12 13 14 14
15 15 15 15 15 16 15 15 13 11 10 11 10 9 9 9 11 12 11 11 11 11 11 11 11 9 7 7 7 6 5 5 6 6 7 8 9 10 10 9 8 8 8 7 7 6 6 5 5 5 6 6 7 8 10 11 14 16 20 25 29 31 28 23 18 14 11 9 8 8 7 6 7 6 6 7 8 9 11 12 14 15 17 18 19 19
15 14 14 15 16 16 15 15 14 12 11 11 10 10 11 13 13 11 10 10 10 10 10 9 8 7 6 6 5 5 6 7 7 8 8 8 9 8 7 7 7 7 7 6 6 6 5 6 6 7 8 9 11 14 16 19 23 27 30 29 25 19 14 10 9 8 7 7 6 6 6 5 6 6 7 8 10 12 15 17 19 19 20 20 19 19
13 13 13 14 13 13 12 12 12 12 13 12 11 12 13 11 9 8 9 10 8 7 7 6 5 4 4 5 6 7 8 9 9 9 8 7 7 7 7 7 8 7 7 6 6 6 6 7 8 9 11 14 16 19 22 25 28 27 22 16 11 8 8 7 7 6 6 5 6 5 5 6 7 8 10 13 16 18 19 20 19 18 18 18 18 18
14 14 14 13 12 12 12 12 12 12 11 11 10 11 9 6 6 8 8 6 6 6 6 6 6 7 8 9 10 10 10 10 9 8 8 9 9 10 9 9 8 7 6 7 7 7 7 8 10 13 15 18 21 24 26 25 21 15 10 8 7 7 7 6 5 5 5 5 6 6 7 8 11 13 16 18 19 20 20 20 20 21 22 23 24 24
16 14 13 12 11 11 10 10 10 9 8 9 9 7 6 6 8 8 7 6 7 8 8 8 10 11 11 10 10 9 9 9 9 9 10 11 10 9 7 7 7 7 7 7 7 8 10 13 16 19 20 22 23 23 21 16 12 8 7 6 6 6 5 5 5 5 6 7 7 9 12 14 17 19 21 22 22 23 24 24 25 26 26 26 27 27
11 9 9 9 10 9 9 10 11 9 9 10 9 7 8 9 8 7 8 9 9 9 9 10 10 10 9 8 8 8 9 9 10 10 9 8 7 6 7 7 7 8 8 9 11 13 16 19 20 20 21 21 19 16 13 11 8 6 5 5 5 5 5 5 6 7 8 10 12 15 17 19 21 23 23 24 25 25 25 25 25 25 26 27 28 29
7 7 8 9 9 8 8 11 12 11 13 12 9 10 12 11 10 11 11 11 12 12 12 11 10 9 9 9 9 9 11 11 10 9 8 7 7 8 8 8 9 10 11 13 16 18 19 19 19 19 18 16 14 13 12 9 6 4 4 4 4 4 5 6 8 10 12 15 17 19 20 22 24 25 25 25 24 23 23 24 25 26 28 30 32 34
6 6 6 8 8 7 8 10 12 13 13 11 10 13 14 12 13 13 12 13 13 13 12 11 11 10 10 11 11 12 12 11 10 10 9 9 9 9 10 11 12 14 15 17 19 19 19 18 18 16 14 12 13 14 12 7 4 3 4 4 4 5 7 10 12 15 17 19 21 22 23 25 25 24 24 22 21 23 24 25 26 28 31 34 36 37
5 5 7 7 7 8 8 8 12 14 13 13 14 15 13 12 13 13 12 14 12 10 11 11 10 10 12 13 14 13 12 11 11 11 11 11 11 11 12 13 15 16 18 19 18 18 18 17 15 12 11 13 14 12 8 5 4 4 4 5 7 9 12 15 17 19 21 22 23 25 25 24 23 21 20 20 21 22 23 25 29 33 35 36 35 34
5 5 6 6 6 8 8 8 13 15 13 14 14 13 12 13 12 12 13 13 10 9 11 11 11 13 14 13 13 11 11 10 10 10 11 11 11 12 13 15 17 18 17 17 17 17 17 14 11 10 12 13 12 8 5 4 3 4 6 8 11 14 16 19 20 22 24 25 25 24 22 20 20 19 19 20 19 20 24 29 34 34 33 31 29 27
6 5 5 6 6 7 7 8 12 13 11 12 12 11 13 12 10 10 12 11 9 10 11 11 12 13 12 11 10 9 9 9 8 9 9 10 12 13 15 17 18 17 17 18 18 16 14 11 10 11 12 11 9 6 4 4 5 7 10 12 15 18 20 22 24 25 25 24 21 19 19 18 18 18 18 18 19 24 31 34 32 29 26 25 24 22
5 5 5 5 5 6 7 7 9 10 10 11 11 11 11 10 8 9 10 10 10 9 9 10 11 10 10 9 8 8 8 8 9 10 11 12 15 17 18 19 19 19 18 18 16 13 11 11 11 11 11 8 6 5 4 6 9 12 14 17 19 22 24 26 26 24 22 20 18 18 18 17 17 17 17 19 25 32 33 29 25 24 24 23 21 17
5 6 5 5 6 6 7 8 9 11 11 10 10 10 10 9 9 8 9 9 8 7 8 10 10 10 9 9 9 9 9 8 10 14 16 17 18 19 20 20 18 18 17 14 12 11 10 11 11 10 9 7 5 6 7 10 13 15 17 19 22 26 27 25 23 20 18 17 17 17 17 17 17 17 19 26 32 31 26 23 24 24 22 20 17 14
5 6 6 5 7 7 7 9 10 11 11 10 10 10 9 9 9 8 9 9 8 9 11 11 11 11 10 11 11 11 12 13 15 18 20 20 21 20 19 18 16 15 13 10 9 10 9 10 10 8 7 5 5 7 10 12 15 17 19 23 26 27 24 21 19 17 16 16 17 18 18 17 16 19 27 32 30 23 20 23 25 22 18 15 13 12
5 7 7 6 7 7 7 8 10 10 10 10 10 10 9 8 9 9 9 10 10 11 13 12 12 12 12 12 12 13 17 20 21 21 20 19 19 18 17 16 13 11 9 8 9 10 10 10 9 6 5 5 6 9 12 14 17 20 23 26 26 23 20 18 16 16 16 18 19 19 18 17 20 27 32 28 21 20 23 24 22 18 14 11 11 12
7 7 7 7 7 7 7 8 9 10 10 10 10 10 9 9 10 10 10 10 11 12 13 12 12 12 12 13 15 18 20 21 19 19 19 17 17 16 14 12 10 8 9 10 11 12 11 9 7 5 5 7 9 11 14 17 21 24 26 26 23 19 17 16 15 15 17 19 19 17 17 20 28 31 27 20 19 22 22 19 16 15 12 11 13 14
9 8 7 7 7 7 8 7 9 11 10 10 10 10 9 9 9 10 10 11 12 13 13 12 12 12 13 15 18 19 18 17 17 17 17 16 15 14 11 9 9 9 11 12 12 12 10 7 6 6 6 9 12 14 17 22 25 27 26 22 19 17 16 15 15 17 20 19 17 17 21 28 31 26 19 19 22 21 16 13 14 15 13 13 15 15
10 9 7 8 7 7 8 8 8 10 9 10 10 10 10 9 9 11 11 12 12 12 12 12 11 12 14 16 18 17 15 15 16 17 17 16 13 11 10 9 10 12 12 13 12 10 8 6 6 7 8 12 14 16 21 26 28 26 22 18 17 17 15 15 17 18 19 17 16 21 30 32 26 19 18 21 20 15 11 12 15 16 15 14 14 13
11 9 8 9 7 7 9 8 7 8 8 10 11 10 10 10 9 10 11 11 12 12 12 13 12 12 15 16 16 14 13 14 16 17 18 16 12 10 10 10 11 11 12 12 11 8 6 5 6 8 11 13 16 19 24 27 26 22 18 16 16 15 14 15 18 19 17 15 19 29 34 27 19 17 20 19 15 11 11 13 16 16 15 14 14 13
11 10 8 9 7 7 9 7 7 9 9 11 12 10 10 10 9 10 11 12 13 13 12 13 13 13 16 16 14 13 12 13 16 18 17 15 11 10 10 9 9 9 10 11 9 7 5 5 7 10 13 14 17 22 26 26 22 18 17 16 15 15 15 16 18 18 15 17 27 35 30 20 16 18 18 15 12 11 12 14 17 16 13 14 14 13
13 12 9 9 8 7 9 8 8 10 9 10 12 10 9 10 9 11 13 13 14 14 13 13 14 14 15 14 13 12 11 11 14 16 17 15 12 10 10 8 7 7 8 9 8 6 5 6 8 11 13 15 20 25 26 23 19 17 16 16 15 15 16 17 18 16 15 23 35 34 22 16 17 17 15 13 12 12 12 14 17 15 12 12 14 13
12 13 10 10 8 7 9 8 8 10 10 11 12 9 8 10 10 12 14 15 15 15 14 14 14 14 14 13 11 11 11 11 13 15 15 15 14 12 11 9 6 6 7 8 8 6 5 7 9 12 13 17 22 27 25 20 16 16 16 15 15 15 16 18 17 14 18 31 38 28 17 16 18 16 15 14 12 12 13 14 15 14 11 11 13 13
11 12 11 11 9 7 8 9 9 11 11 11 12 10 8 9 11 13 15 16 16 16 15 15 15 14 14 13 11 11 12 13 14 14 14 15 14 13 12 10 6 5 6 8 8 7 6 7 10 12 14 19 24 26 23 18 16 16 15 14 15 15 16 18 15 14 24 37 34 22 16 17 17 15 15 14 11 12 13 11 12 14 13 13 13 13
10 11 11 12 10 7 8 8 8 11 12 11 11 10 7 8 11 13 15 17 17 17 16 15 15 14 14 13 13 14 15 15 15 15 14 15 14 13 12 10 6 4 6 8 8 7 7 8 12 13 15 21 26 26 21 16 16 16 14 15 15 14 16 18 14 16 30 39 29 18 16 18 18 16 15 11 9 11 12 11 12 13 14 14 14 14
9 10 10 11 10 8 8 7 6 9 12 11 10 9 7 8 11 13 15 17 18 18 17 16 15 15 15 15 16 18 18 17 17 16 14 14 14 13 11 10 6 4 7 10 9 8 8 10 12 14 16 22 26 24 18 16 17 16 14 15 15 13 16 17 13 18 36 39 25 16 17 18 19 17 13 10 8 8 11 13 14 13 11 11 12 14
9 10 11 11 10 8 9 8 7 9 11 11 10 9 6 7 10 12 15 17 17 17 17 16 17 18 18 18 19 20 20 19 17 16 14 13 13 12 11 9 5 4 8 11 10 9 9 11 12 14 17 23 25 22 17 16 18 16 13 14 14 12 16 17 12 21 39 38 22 16 19 19 19 16 11 9 9 8 9 11 12 14 13 9 10 13
Height
5740 5739 5737 5736 5734 5733 5732 5730 5729 5728 5726 5725 5723 5722 5720 5718 5716 5714 5713 5711 5710 5708 5707 5706 5704 5702 5701 5700 5700 5700 5699 5697 5696 5694 5693 5691 5689 5687 5685 5683 5682 5681 5679 5677 5675 5673 5671 5669 5667 5665 5663 5660 5658 5656 5654 5651 5649 5647 5645 5643 5641 5640 5638 5636 5634 5633 5631 5629 5628 5626 5624 5623 5622 5620 5619 5617 5616 5614 5612 5611 5609 5607 5606 5604 5602 5601
5737 5735 5734 5732 5731 5729 5728 5726 5725 5723 5722 5720 5719 5717 5715 5713 5711 5709 5708 5706 5705 5703 5701 5701 5699 5697 5696 5696 5695 5695 5693 5692 5690 5689 5687 5685 5683 5681 5679 5677 5676 5674 5673 5671 5669 5667 5665 5662 5660 5658 5656 5654 5651 5649 5646 5644 5642 5640 5638 5636 5634 5632 5630 5629 5627 5625 5624 5622 5620 5619 5617 5615 5614 5612 5611 5609 5608 5606 5604 5602 5601 5599 5597 5595 5593 5591
5733 5732 5730 5729 5727 5725 5724 5722 5720 5719 5718 5716 5714 5713 5711 5708 5706 5704 5703 5701 5700 5698 5696 5695 5693 5691 5691 5690 5690 5689 5688 5686 5684 5683 5681 5679 5677 5675 5673 5671 5669 5668 5666 5664 5662 5660 5658 5655 5653 5651 5648 5646 5644 5641 5639 5637 5635 5633 5631 5629 5627 5625 5623 5621 5620 5618 5616 5615 5613 5611 5609 5608 5606 5604 5603 5601 5599 5597 5596 5593 5591 5589 5587 5585 5583 5581
5729 5728 5726 5725 5723 5721 5720 5718 5716 5715 5713 5711 5710 5708 5706 5704 5701 5700 5698 5697 5695 5693 5691 5690 5687 5686 5685 5685 5684 5683 5682 5680 5679 5677 5675 5673 5671 5669 5667 5665 5663 5661 5659 5656 5654 5652 5650 5648 5645 5643 5640 5638 5636 5634 5631 5629 5627 5625 5623 5621 5619 5618 5616 5614 5612 5611 5609 5607 5605 5603 5601 5599 5598 5596 5595 5593 5591 5589 5587 5585 5582 5580 5577 5575 5573 5571
5725 5724 5722 5721 5719 5717 5716 5714 5712 5711 5709 5707 5705 5703 5701 5699 5697 5695 5693 5691 5689 5688 5687 5684 5681 5680 5680 5679 5678 5678 5676 5675 5673 5671 5669 5667 5665 5663 5660 5658 5656 5653 5651 5649 5646 5644 5642 5640 5637 5635 5633 5630 5628 5626 5624 5622 5620 5618 5616 5614 5612 5610 5609 5607 5605 5603 5602 5600 5598 5595 5593 5591 5589 5587 5586 5584 5582 5580 5577 5575 5573 5570 5568 5566 5564 5561
5722 5720 5719 5717 5715 5713 5711 5709 5708 5706 5705 5703 5700 5699 5696 5694 5692 5690 5688 5686 5684 5682 5682 5679 5675 5673 5674 5673 5673 5672 5670 5669 5667 5665 5663 5661 5658 5656 5653 5651 5648 5646 5643 5641 5639 5637 5634 5632 5630 5627 5625 5623 5621 5619 5616 5614 5612 5610 5608 5606 5604 5603 5601 5599 5597 5596 5594 5592 5589 5587 5585 5582 5580 5578 5576 5574 5572 5570 5567 5565 5563 5561 5558 5556 5554 5552
5718 5717 5715 5713 5711 5709 5707 5705 5703 5702 5700 5698 5696 5694 5691 5689 5687 5685 5683 5681 5679 5677 5676 5674 5670 5667 5667 5667 5667 5666 5664 5663 5661 5659 5656 5654 5651 5648 5646 5643 5641 5638 5636 5633 5631 5629 5627 5624 5622 5620 5617 5615 5613 5611 5609 5607 5604 5602 5600 5598 5597 5595 5593 5591 5589 5587 5585 5583 5581 5578 5576 5573 5571 5570 5567 5564 5562 5559 5558 5556 5554 5552 5549 5547 5545 5542
5715 5713 5711 5709 5707 5705 5703 5701 5699 5697 5695 5693 5691 5689 5687 5684 5682 5680 5678 5676 5674 5672 5670 5669 5666 5662 5660 5660 5660 5659 5658 5656 5654 5652 5649 5647 5644 5641 5639 5636 5633 5631 5628 5626 5624 5621 5619 5617 5614 5612 5610 5607 5605 5603 5602 5600 5597 5595 5593 5591 5589 5588 5585 5583 5581 5579 5576 5574 5572 5569 5566 5564 5561 5559 5557 5555 5552 5550 5548 5546 5544 5542 5540 5538 5535 5532
5711 5709 5707 5705 5703 5700 5698 5696 5694 5692 5690 5688 5686 5684 5682 5680 5677 5675 5673 5671 5668 5666 5665 5664 5661 5656 5653 5653 5653 5652 5651 5649 5647 5645 5642 5640 5637 5634 5632 5629 5627 5624 5622 5619 5617 5614 5612 5609 5607 5605 5602 5600 5598 5596 5594 5592 5590 5587 5585 5582 5581 5579 5577 5575 5572 5570 5567 5564 5562 5558 5556 5553 5551 5548 5546 5544 5542 5539 5538 5536 5533 5531 5529 5527 5524 5522
5707 5705 5702 5700 5698 5696 5694 5692 5689 5687 5685 5683 5681 5679 5677 5675 5673 5670 5668 5666 5663 5660 5661 5659 5655 5650 5647 5647 5647 5645 5643 5642 5640 5638 5635 5633 5630 5627 5625 5622 5620 5618 5615 5613 5610 5607 5605 5602 5600 5597 5595 5592 5590 5588 5586 5584 5582 5579 5577 5574 5572 5570 5567 5564 5561 5558 5555 5552 5549 5546 5544 5542 5540 5538 5536 5533 5531 5528 5526 5524 5522 5520 5518 5515 5513 5510
5702 5700 5697 5695 5693 5691 5689 5686 5684 5682 5680 5678 5676 5673 5671 5669 5667 5665 5663 5661 5657 5654 5655 5653 5649 5645 5641 5640 5641 5639 5637 5635 5633 5631 5628 5625 5623 5621 5618 5616 5613 5611 5609 5606 5603 5601 5598 5595 5593 5590 5587 5585 5582 5580 5578 5576 5574 5571 5568 5565 5562 5559 5556 5553 5550 5547 5544 5541 5538 5535 5533 5531 5529 5527 5524 5522 5519 5517 5514 5512 5510 5508 5505 5503 5501 5498
5696 5694 5692 5689 5687 5685 5683 5681 5678 5676 5674 5672 5670 5667 5665 5663 5661 5659 5657 5655 5651 5649 5649 5646 5643 5640 5635 5634 5635 5633 5631 5629 5626 5624 5621 5619 5616 5614 5612 5609 5607 5604 5602 5599 5596 5594 5591 5588 5586 5583 5580 5578 5575 5572 5570 5567 5565 5562 5559 5555 5551 5548 5546 5543 5540 5537 5534 5531 5527 5524 5522 5519 5517 5514 5512 5510 5507 5504 5502 5500 5498 5495 5493 5491 5488 5485
5691 5689 5686 5684 5682 5679 5677 5675 5672 5670 5668 5666 5664 5662 5659 5657 5654 5653 5651 5649 5646 5644 5642 5640 5637 5634 5631 5629 5629 5627 5624 5622 5620 5618 5615 5613 5610 5607 5605 5602 5600 5597 5595 5592 5589 5587 5584 5581 5578 5575 5573 5570 5567 5564 5561 5559 5556 5553 5549 5546 5543 5540 5537 5534 5531 5527 5524 5520 5517 5514 5511 5508 5505 5502 5499 5497 5494 5491 5488 5486 5484 5482 5479 5478 5475 5472
5687 5684 5682 5679 5677 5675 5673 5670 5668 5666 5663 5661 5659 5657 5654 5651 5648 5647 5645 5643 5641 5638 5636 5634 5631 5628 5626 5625 5623 5620 5618 5616 5614 5611 5609 5607 5604 5601 5598 5595 5593 5590 5587 5585 5582 5579 5577 5574 5571 5568 5565 5562 5559 5556 5553 5550 5548 5544 5541 5538 5535 5531 5528 5525 5521 5518 5514 5511 5507 5503 5500 5497 5493 5490 5487 5484 5481 5478 5475 5472 5469 5467 5464 5462 5460 5458
5683 5680 5677 5675 5673 5671 5668 5666 5664 5662 5659 5657 5655 5652 5650 5647 5644 5641 5639 5637 5635 5633 5630 5628 5626 5623 5621 5619 5617 5615 5612 5610 5607 5605 5602 5600 5597 5594 5591 5588 5585 5582 5580 5577 5575 5572 5569 5566 5563 5560 5557 5554 5551 5548 5545 5542 5539 5536 5532 5529 5525 5522 5518 5515 5511 5507 5504 5500 5496 5492 5488 5485 5481 5478 5475 5471 5468 5465 5462 5458 5455 5452 5449 5447 5444 5442
5679 5676 5673 5671 5669 5666 5664 5662 5660 5658 5655 5653 5651 5648 5646 5643 5640 5637 5634 5632 5630 5627 5625 5623 5621 5618 5616 5614 5612 5609 5606 5604 5601 5598 5595 5593 5590 5587 5584 5581 5578 5575 5572 5570 5567 5564 5561 5558 5555 5552 5549 5546 5543 5539 5536 5533 5529 5526 5522 5519 5515 5511 5507 5504 5500 5496 5492 5488 5484 5480 5476 5472 5469 5465 5462 5459 5455 5451 5448 5445 5441 5438 5435 5431 5428 5426
5676 5673 5670 5667 5665 5662 5660 5658 5656 5654 5651 5648 5646 5644 5641 5638 5636 5632 5630 5627 5625 5622 5620 5618 5616 5613 5611 5608 5606 5603 5600 5598 5595 5592 5589 5586 5583 5580 5577 5574 5571 5568 5565 5562 5559 5556 5553 5549 5546 5543 5540 5537 5533 5530 5526 5523 5519 5515 5512 5508 5504 5500 5496 5492 5488 5484 5480 5476 5472 5468 5463 5459 5456 5452 5448 5445 5441 5437 5434 5430 5426 5422 5419 5415 5412 5409
5672 5671 5667 5664 5661 5659 5657 5655 5652 5650 5647 5644 5642 5639 5637 5634 5631 5628 5625 5622 5619 5616 5614 5613 5610 5608 5605 5603 5600 5598 5595 5592 5589 5586 5583 5579 5576 5573 5570 5567 5564 5561 5558 5555 5551 5548 5544 5541 5538 5535 5531 5527 5524 5520 5516 5513 5508 5505 5501 5497 5493 5489 5485 5480 5476 5472 5468 5463 5459 5455 5450 5446 5442 5438 5434 5430 5426 5422 5419 5415 5411 5407 5403 5399 5394 5391
5668 5667 5665 5661 5658 5656 5653 5651 5648 5645 5642 5640 5637 5634 5632 5629 5626 5623 5620 5617 5614 5611 5608 5607 5605 5603 5600 5597 5594 5591 5588 5585 5582 5579 5577 5574 5571 5567 5564 5561 5558 5554 5550 5547 5544 5540 5536 5533 5530 5526 5522 5518 5514 5510 5507 5502 5498 5494 5490 5485 5481 5477 5473 5468 5463 5459 5454 5450 5445 5441 5436 5432 5427 5423 5419 5415 5410 5406 5402 5398 5394 5390 5386 5381 5377 5373
5664 5663 5661 5658 5654 5652 5649 5646 5644 5641 5638 5635 5632 5629 5627 5624 5621 5619 5616 5612 5609 5606 5603 5600 5599 5597 5594 5591 5588 5585 5582 5579 5576 5573 5570 5568 5565 5561 5558 5554 5550 5547 5543 5539 5536 5532 5528 5524 5521 5518 5513 5509 5505 5500 5497 5492 5488 5483 5479 5474 5470 5465 5460 5455 5450 5446 5441 5436 5432 5427 5422 5417 5413 5408 5403 5399 5394 5389 5385 5380 5376 5372 5368 5363 5359 5354
5661 5658 5657 5654 5650 5648 5645 5642 5640 5637 5634 5631 5628 5625 5622 5619 5616 5614 5612 5608 5605 5602 5598 5595 5594 5592 5588 5585 5583 5580 5577 5574 5570 5567 5564 5561 5558 5554 5550 5547 5543 5539 5535 5531 5528 5524 5520 5516 5513 5509 5504 5499 5495 5491 5487 5482 5477 5473 5468 5462 5458 5453 5448 5443 5438 5433 5427 5423 5418 5413 5408 5403 5398 5393 5388 5383 5377 5372 5368 5363 5358 5354 5350 5346 5341 5335
5657 5655 5652 5650 5647 5644 5641 5638 5636 5633 5630 5627 5624 5621 5618 5615 5612 5610 5608 5605 5601 5598 5595 5591 5589 5588 5584 5580 5578 5574 5571 5568 5564 5561 5557 5553 5550 5547 5543 5540 5536 5532 5528 5524 5520 5516 5512 5508 5504 5500 5495 5490 5485 5481 5476 5472 5467 5462 5456 5451 5445 5440 5435 5430 5425 5419 5414 5409 5403 5398 5393 5388 5383 5377 5372 5367 5362 5356 5351 5346 5342 5336 5332 5328 5324 5318
5654 5651 5648 5645 5642 5640 5637 5634 5631 5629 5626 5623 5620 5617 5614 5611 5608 5605 5603 5600 5597 5594 5591 5587 5585 5583 5580 5576 5573 5569 5566 5563 5559 5555 5551 5548 5545 5541 5537 5533 5529 5525 5521 5517 5513 5509 5505 5500 5495 5490 5485 5480 5475 5470 5466 5461 5456 5450 5445 5439 5433 5428 5422 5417 5412 5406 5400 5395 5389 5383 5378 5373 5368 5363 5357 5352 5347 5342 5336 5331 5326 5320 5315 5311 5307 5302
5650 5647 5645 5642 5639 5637 5634 5631 5628 5625 5622 5620 5616 5613 5610 5607 5604 5602 5599 5596 5594 5591 5587 5583 5580 5578 5574 5572 5568 5564 5561 5557 5554 5550 5546 5543 5539 5535 5531 5526 5522 5518 5513 5509 5505 5500 5496 5491 5486 5481 5475 5470 5465 5460 5455 5450 5445 5439 5433 5427 5421 5415 5409 5404 5398 5392 5387 5382 5376 5370 5365 5360 5354 5349 5343 5338 5332 5327 5322 5316 5310 5305 5299 5294 5290 5286
5647 5644 5641 5639 5636 5634 5631 5629 5626 5623 5620 5617 5614 5611 5608 5605 5602 5599 5596 5592 5590 5587 5583 5579 5576 5572 5569 5566 5563 5560 5556 5552 5548 5544 5540 5536 5533 5529 5524 5519 5514 5510 5505 5501 5497 5492 5487 5482 5476 5471 5465 5460 5455 5449 5444 5439 5433 5427 5420 5414 5408 5402 5396 5390 5385 5380 5374 5368 5363 5358 5352 5346 5341 5335 5329 5323 5317 5311 5306 5300 5294 5288 5282 5277 5272 5268
5644 5641 5638 5635 5632 5629 5626 5624 5622 5620 5617 5614 5611 5608 5605 5602 5598 5595 5592 5589 5585 5583 5579 5575 5571 5568 5564 5561 5558 5554 5551 5547 5542 5538 5533 5529 5525 5521 5515 5510 5506 5502 5497 5493 5488 5483 5478 5472 5467 5461 5455 5449 5444 5438 5432 5427 5421 5414 5408 5401 5395 5389 5384 5378 5373 5367 5361 5355 5350 5345 5339 5333 5327 5321 5314 5308 5301 5295 5289 5283 5276 5270 5265 5259 5254 5250
5642 5639 5636 5633 5630 5627 5624 5621 5618 5616 5613 5610 5607 5604 5601 5598 5595 5592 5589 5585 5582 5579 5575 5571 5567 5563 5560 5556 5553 5549 5545 5540 5535 5531 5526 5522 5518 5513 5508 5503 5498 5493 5488 5484 5479 5473 5468 5462 5456 5450 5444 5438 5432 5426 5420 5414 5408 5402 5396 5390 5383 5378 5372 5367 5361 5355 5348 5342 5336 5330 5325 5319 5312 5305 5298 5292 5285 5279 5272 5266 5259 5253 5247 5241 5235 5232
5641 5638 5635 5632 5629 5626 5623 5620 5617 5614 5611 5607 5604 5601 5598 5595 5592 5588 5585 5581 5577 5574 5571 5567 5563 5559 5555 5550 5546 5542 5538 5533 5529 5524 5519 5515 5510 5505 5500 5495 5490 5484 5479 5474 5469 5463 5458 5452 5446 5439 5433 5427 5421 5415 5408 5402 5396 5390 5384 5378 5372 5366 5360 5354 5348 5342 5335 5328 5322 5316 5310 5303 5296 5289 5282 5275 5269 5262 5255 5249 5242 5236 5230 5224 5219 5214
5639 5636 5634 5631 5628 5625 5622 5619 5615 5612 5608 5605 5602 5599 5595 5592 5588 5585 5581 5577 5573 5569 5565 5561 5557 5553 5548 5544 5540 5535 5531 5526 5521 5516 5512 5507 5502 5496 5491 5486 5481 5476 5471 5465 5459 5453 5447 5441 5435 5428 5421 5415 5409 5403 5397 5392 5386 5380 5373 5368 5362 5355 5349 5342 5336 5329 5321 5315 5308 5301 5294 5288 5281 5273 5266 5259 5252 5245 5238 5231 5225 5219 5213 5207 5202 5197
5638 5635 5632 5629 5626 5623 5620 5617 5613 5610 5606 5602 5599 5596 5592 5588 5585 5581 5577 5573 5569 5564 5559 5556 5552 5547 5543 5538 5533 5529 5524 5519 5514 5508 5504 5498 5493 5488 5483 5477 5472 5467 5462 5455 5449 5443 5437 5430 5424 5417 5411 5405 5399 5394 5388 5383 5377 5371 5364 5358 5352 5344 5337 5330 5323 5315 5307 5300 5293 5285 5278 5272 5265 5257 5249 5242 5235 5228 5221 5215 5208 5203 5197 5191 5185 5180
5637 5634 5631 5628 5624 5621 5618 5614 5611 5607 5603 5599 5596 5592 5588 5584 5580 5576 5572 5569 5565 5560 5555 5551 5547 5542 5537 5533 5528 5522 5517 5512 5507 5501 5496 5491 5485 5480 5474 5469 5463 5458 5452 5446 5439 5433 5427 5420 5414 5407 5401 5396 5390 5385 5379 5373 5367 5361 5354 5347 5341 5333 5325 5317 5310 5302 5294 5286 5278 5270 5263 5256 5249 5242 5234 5226 5220 5213 5206 5200 5193 5187 5181 5175 5170 5165
5636 5633 5630 5626 5623 5619 5616 5612 5609 5605 5601 5597 5593 5589 5585 5581 5577 5572 5568 5563 5559 5555 5551 5547 5542 5537 5532 5527 5522 5516 5511 5505 5500 5494 5489 5483 5477 5471 5465 5459 5454 5448 5442 5436 5430 5423 5417 5411 5404 5398 5392 5387 5381 5376 5370 5364 5357 5350 5343 5336 5328 5321 5313 5304 5296 5288 5279 5270 5262 5255 5248 5241 5235 5228 5220 5212 5205 5199 5192 5186 5179 5173 5167 5162 5156 5151
5635 5631 5628 5624 5621 5617 5613 5609 5605 5601 5597 5593 5589 5585 5581 5577 5573 5569 5564 5559 5554 5549 5545 5540 5535 5531 5526 5521 5515 5510 5504 5498 5492 5486 5481 5475 5469 5462 5456 5450 5444 5438 5432 5425 5419 5413 5407 5401 5394 5389 5383 5378 5372 5366 5360 5353 5347 5339 5331 5324 5316 5308 5299 5291 5281 5272 5264 5256 5247 5240 5233 5227 5220 5213 5206 5199 5192 5186 5179 5172 5166 5159 5153 5149 5144 5139
5632 5629 5625 5622 5618 5614 5610 5606 5602 5598 5593 5589 5585 5581 5576 5572 5568 5564 5560 5555 5549 5544 5539 5534 5529 5524 5518 5513 5507 5502 5497 5490 5484 5478 5472 5466 5460 5453 5447 5440 5434 5428 5422 5415 5410 5404 5398 5392 5386 5380 5375 5369 5363 5357 5350 5343 5336 5329 5320 5311 5303 5295 5286 5277 5268 5259 5251 5242 5234 5226 5220 5213 5207 5200 5193 5186 5179 5173 5166 5159 5153 5147 5141 5137 5133 5129
5631 5627 5624 5619 5615 5611 5606 5602 5597 5593 5588 5584 5579 5575 5571 5567 5563 5559 5555 5550 5544 5539 5534 5528 5522 5517 5511 5506 5500 5494 5489 5483 5475 5469 5462 5457 5450 5443 5437 5431 5425 5419 5413 5407 5402 5396 5390 5384 5378 5372 5367 5361 5354 5348 5342 5334 5327 5318 5309 5299 5291 5283 5274 5265 5256 5247 5238 5230 5222 5214 5207 5201 5196 5189 5182 5176 5169 5162 5155 5149 5143 5138 5132 5128 5124 5120
5630 5626 5621 5616 5612 5607 5602 5597 5592 5588 5584 5580 5576 5571 5566 5562 5557 5554 5550 5546 5539 5533 5527 5521 5515 5510 5504 5498 5493 5487 5481 5475 5467 5459 5453 5447 5441 5434 5428 5422 5416 5410 5404 5399 5393 5388 5382 5376 5370 5364 5358 5352 5346 5339 5332 5325 5317 5308 5299 5289 5280 5272 5263 5254 5245 5236 5228 5220 5212 5205 5198 5191 5186 5180 5173 5167 5160 5154 5147 5141 5136 5131 5126 5123 5119 5114
5628 5623 5618 5613 5609 5604 5600 5596 5591 5586 5581 5576 5571 5566 5561 5556 5551 5546 5543 5539 5532 5526 5521 5515 5509 5503 5497 5491 5485 5479 5473 5467 5460 5451 5445 5439 5432 5426 5420 5414 5408 5402 5397 5391 5386 5380 5374 5368 5362 5356 5350 5344 5337 5331 5324 5316 5307 5298 5289 5280 5271 5262 5253 5244 5236 5227 5219 5211 5204 5197 5189 5183 5177 5171 5165 5158 5151 5145 5139 5134 5130 5126 5121 5118 5115 5110
5625 5620 5616 5611 5606 5602 5598 5594 5589 5584 5578 5572 5567 5561 5556 5551 5545 5540 5535 5531 5526 5520 5514 5508 5502 5497 5491 5485 5478 5471 5466 5461 5454 5445 5437 5431 5424 5418 5413 5407 5401 5395 5390 5384 5379 5373 5367 5361 5354 5348 5342 5336 5329 5322 5314 5306 5296 5287 5278 5270 5261 5253 5244 5235 5227 5219 5211 5203 5196 5188 5181 5174 5168 5162 5156 5149 5143 5137 5133 5129 5125 5121 5117 5114 5110 5106
5623 5619 5615 5611 5606 5601 5596 5590 5583 5578 5573 5568 5563 5557 5552 5546 5541 5535 5530 5526 5521 5514 5508 5502 5496 5490 5484 5477 5471 5464 5457 5452 5447 5439 5431 5425 5418 5412 5406 5400 5394 5389 5383 5377 5372 5366 5360 5353 5347 5340 5333 5326 5319 5311 5303 5294 5285 5276 5267 5259 5250 5242 5234 5226 5218 5210 5203 5195 5188 5180 5173 5166 5159 5153 5147 5141 5136 5131 5127 5123 5120 5116 5113 5109 5105 5101
5623 5619 5615 5610 5605 5599 5593 5587 5581 5575 5570 5565 5559 5554 5548 5543 5538 5531 5525 5520 5515 5509 5503 5496 5490 5484 5477 5470 5464 5456 5448 5442 5437 5431 5424 5418 5412 5406 5399 5394 5388 5382 5377 5370 5365 5359 5352 5345 5339 5332 5325 5317 5309 5300 5292 5283 5274 5265 5256 5248 5240 5232 5225 5217 5209 5201 5194 5187 5179 5172 5164 5158 5152 5146 5139 5134 5130 5126 5122 5118 5115 5112 5108 5104 5100 5096
5622 5617 5612 5607 5602 5596 5590 5585 5580 5574 5568 5562 5557 5551 5545 5539 5534 5528 5521 5515 5509 5503 5497 5491 5484 5478 5471 5465 5458 5451 5443 5435 5428 5423 5417 5411 5406 5400 5394 5388 5382 5376 5370 5364 5358 5352 5346 5339 5332 5324 5317 5309 5301 5292 5283 5274 5264 5255 5246 5239 5231 5224 5216 5208 5201 5193 5186 5179 5171 5164 5157 5150 5144 5139 5134 5129 5125 5121 5118 5114 5111 5108 5104 5100 5096 5092
5617 5613 5608 5603 5598 5592 5587 5582 5577 5571 5565 5559 5552 5547 5541 5535 5529 5524 5517 5510 5504 5498 5492 5486 5479 5473 5466 5459 5452 5445 5438 5431 5424 5417 5411 5406 5401 5396 5390 5384 5378 5372 5365 5359 5352 5346 5340 5333 5326 5317 5309 5301 5293 5284 5276 5266 5257 5248 5239 5232 5224 5216 5209 5201 5193 5186 5179 5172 5165 5158 5151 5144 5138 5133 5128 5125 5121 5117 5114 5111 5108 5104 5101 5096 5092 5088
5614 5609 5604 5599 5594 5588 5582 5576 5570 5564 5559 5554 5548 5543 5537 5531 5525 5519 5513 5506 5500 5493 5487 5481 5474 5467 5460 5454 5447 5439 5432 5426 5419 5413 5407 5401 5396 5390 5385 5379 5373 5367 5361 5354 5348 5341 5335 5327 5319 5311 5302 5294 5285 5276 5267 5259 5250 5242 5233 5226 5218 5211 5203 5195 5187 5180 5172 5165 5158 5152 5145 5139 5133 5128 5124 5120 5116 5113 5110 5108 5105 5101 5098 5093 5089 5086
5611 5605 5600 5594 5589 5583 5577 5571 5565 5560 5555 5550 5545 5539 5533 5527 5521 5514 5508 5502 5496 5489 5482 5475 5469 5461 5455 5448 5442 5434 5427 5421 5414 5408 5402 5396 5391 5385 5379 5373 5367 5361 5355 5348 5342 5335 5328 5321 5312 5303 5294 5285 5276 5267 5259 5251 5243 5235 5228 5220 5213 5205 5198 5190 5182 5174 5167 5160 5153 5146 5140 5134 5129 5125 5120 5116 5113 5109 5107 5105 5102 5099 5095 5090 5086 5082
5608 5603 5598 5592 5587 5582 5576 5571 5566 5560 5553 5548 5542 5535 5529 5523 5517 5511 5504 5498 5491 5484 5477 5471 5464 5457 5450 5443 5437 5430 5423 5416 5409 5403 5397 5391 5385 5380 5374 5367 5361 5355 5349 5342 5335 5328 5321 5313 5304 5296 5286 5277 5268 5259 5250 5243 5236 5229 5222 5215 5207 5200 5193 5185 5178 5170 5162 5155 5148 5141 5136 5131 5126 5121 5117 5113 5109 5106 5103 5102 5099 5096 5093 5088 5084 5079
5607 5602 5597 5591 5586 5582 5576 5570 5564 5557 5551 5545 5539 5533 5527 5521 5514 5508 5501 5494 5487 5480 5473 5466 5459 5452 5445 5439 5432 5425 5418 5411 5404 5397 5391 5386 5380 5375 5368 5362 5356 5349 5343 5336 5329 5322 5314 5306 5297 5289 5280 5270 5261 5252 5244 5236 5229 5223 5216 5209 5202 5195 5187 5180 5173 5166 5158 5150 5144 5138 5133 5128 5124 5119 5115 5111 5107 5102 5099 5097 5096 5093 5090 5086 5082 5077
5605 5600 5595 5590 5584 5579 5573 5567 5561 5555 5549 5543 5537 5531 5525 5519 5512 5505 5497 5490 5483 5476 5469 5461 5454 5447 5441 5434 5427 5420 5413 5406 5399 5393 5387 5381 5376 5370 5364 5358 5351 5344 5337 5330 5323 5316 5308 5300 5292 5283 5274 5265 5255 5247 5238 5230 5223 5217 5210 5204 5197 5190 5183 5175 5168 5161 5153 5146 5140 5135 5130 5126 5122 5118 5114 5110 5106 5101 5096 5094 5092 5090 5087 5084 5080 5076
5603 5598 5593 5587 5582 5576 5571 5565 5559 5553 5546 5540 5534 5528 5522 5515 5509 5501 5494 5486 5479 5472 5464 5457 5450 5443 5436 5429 5422 5415 5408 5401 5395 5388 5382 5377 5371 5365 5359 5353 5346 5339 5332 5325 5318 5311 5303 5295 5286 5277 5268 5259 5250 5241 5233 5226 5219 5212 5206 5199 5193 5187 5179 5171 5164 5156 5149 5142 5137 5132 5128 5123 5120 5116 5113 5108 5104 5099 5095 5092 5090 5088 5085 5081 5078 5074
5600 5595 5590 5585 5579 5574 5568 5563 5557 5551 5545 5538 5532 5526 5519 5512 5504 5497 5489 5482 5475 5467 5460 5452 5445 5438 5431 5424 5417 5411 5403 5397 5390 5384 5377 5372 5366 5360 5354 5348 5342 5335 5328 5321 5313 5305 5297 5289 5281 5272 5262 5253 5245 5237 5229 5221 5214 5208 5201 5195 5189 5183 5176 5169 5161 5153 5145 5139 5134 5130 5126 5122 5118 5114 5111 5108 5102 5096 5090 5086 5085 5084 5082 5079 5075 5071
5597 5592 5586 5581 5576 5570 5564 5558 5552 5547 5541 5534 5528 5521 5515 5508 5500 5493 5485 5478 5470 5463 5456 5448 5441 5433 5426 5419 5412 5406 5399 5392 5386 5379 5373 5367 5361 5356 5350 5344 5338 5331 5324 5317 5309 5301 5292 5284 5275 5267 5257 5248 5240 5232 5225 5218 5211 5204 5198 5192 5185 5179 5173 5166 5159 5151 5143 5137 5132 5129 5124 5121 5117 5113 5109 5106 5103 5098 5091 5083 5079 5077 5077 5076 5073 5069
5595 5589 5583 5577 5572 5566 5560 5554 5548 5542 5536 5530 5524 5518 5511 5504 5497 5489 5481 5474 5466 5459 5452 5444 5437 5430 5422 5415 5408 5401 5394 5388 5381 5375 5368 5362 5357 5351 5345 5339 5334 5327 5320 5313 5305 5297 5288 5280 5271 5262 5253 5245 5237 5229 5222 5214 5207 5201 5194 5188 5182 5175 5169 5162 5155 5148 5141 5135 5131 5127 5123 5119 5116 5112 5108 5105 5101 5099 5095 5088 5080 5075 5072 5071 5071 5069